• In Spain
  • List of Countries
  • For 7 days
  • Water Temperature
  • Satellite Maps
  • Weather Map
  • Weather Widgets
  • user-avatar
    Login

    Hourly Weather Neuquén

    Today, 19 October, Friday

    Time Temperature Precipitation Wind Pressure Humidity
    00:00 +8°C° 0 mm 10 mps 744 mmHg 65%
    01:00 +7°C° 0 mm 10 mps 743 mmHg 67%
    02:00 +7°C° 0 mm 10 mps 743 mmHg 68%
    03:00 +7°C° 0 mm 10 mps 743 mmHg 69%
    04:00 +6°C° 0 mm 9 mps 743 mmHg 71%
    05:00 +6°C° 0.2 mm 9 mps 743 mmHg 71%
    06:00 +6°C° 0.2 mm 9 mps 743 mmHg 72%
    07:00 +6°C° 0.2 mm 8 mps 743 mmHg 73%
    08:00 +6°C° 0.6 mm 8 mps 743 mmHg 73%
    09:00 +6°C° 0.6 mm 8 mps 743 mmHg 73%
    10:00 +6°C° 0.6 mm 7 mps 743 mmHg 73%
    11:00 +6°C° 0.5 mm 7 mps 742 mmHg 74%
    12:00 +8°C° 0.5 mm 7 mps 742 mmHg 74%
    13:00 +8°C° 0.5 mm 7 mps 742 mmHg 75%
    14:00 +8°C° 0.2 mm 7 mps 741 mmHg 76%
    15:00 +8°C° 0.2 mm 7 mps 741 mmHg 76%
    16:00 +8°C° 0.2 mm 7 mps 741 mmHg 77%
    17:00 +8°C° 0.1 mm 7 mps 741 mmHg 78%
    18:00 +9°C° 0.1 mm 7 mps 741 mmHg 80%
    19:00 +9°C° 0.1 mm 6 mps 741 mmHg 81%
    20:00 +9°C° 0.1 mm 6 mps 741 mmHg 83%
    21:00 +9°C° 0.1 mm 6 mps 741 mmHg 84%
    22:00 +9°C° 0.1 mm 5 mps 741 mmHg 85%
    23:00 +9°C° 0.1 mm 5 mps 740 mmHg 86%

    Tomorrow, 20 October, Saturday

    Time Temperature Precipitation Wind Pressure Humidity
    00:00 +9°C° 0.1 mm 5 mps 740 mmHg 87%
    01:00 +9°C° 0.1 mm 5 mps 739 mmHg 88%
    02:00 +10°C° 0.1 mm 4 mps 739 mmHg 88%
    03:00 +10°C° 0.1 mm 4 mps 738 mmHg 88%
    04:00 +10°C° 0.1 mm 4 mps 738 mmHg 89%
    05:00 +10°C° 0.1 mm 4 mps 738 mmHg 89%
    06:00 +10°C° 0.1 mm 4 mps 738 mmHg 88%
    07:00 +10°C° 0.1 mm 3 mps 738 mmHg 88%
    08:00 +11°C° 0.1 mm 3 mps 737 mmHg 87%
    09:00 +11°C° 0.1 mm 3 mps 737 mmHg 85%
    10:00 +12°C° 0.1 mm 4 mps 737 mmHg 84%
    11:00 +13°C° 0 mm 3 mps 736 mmHg 81%
    12:00 +14°C° 0 mm 3 mps 736 mmHg 78%
    13:00 +16°C° 0 mm 3 mps 735 mmHg 75%
    14:00 +16°C° 0 mm 3 mps 734 mmHg 75%
    15:00 +17°C° 0 mm 3 mps 734 mmHg 74%
    16:00 +17°C° 0 mm 3 mps 734 mmHg 74%
    17:00 +16°C° 0 mm 3 mps 734 mmHg 77%
    18:00 +15°C° 0 mm 4 mps 734 mmHg 80%
    19:00 +14°C° 0 mm 4 mps 734 mmHg 83%
    20:00 +14°C° 0.3 mm 3 mps 734 mmHg 84%
    21:00 +14°C° 0.3 mm 3 mps 734 mmHg 86%
    22:00 +15°C° 0.3 mm 2 mps 734 mmHg 87%
    23:00 +13°C° 0.4 mm 3 mps 734 mmHg 85%

    Day after tomorrow, 21 October, Sunday

    Time Temperature Precipitation Wind Pressure Humidity
    00:00 +13°C° 0.4 mm 3 mps 734 mmHg 82%
    01:00 +13°C° 0.4 mm 4 mps 734 mmHg 79%
    02:00 +12°C° 0 mm 5 mps 734 mmHg 69%
    03:00 +12°C° 0 mm 5 mps 734 mmHg 59%
    04:00 +10°C° 0 mm 6 mps 734 mmHg 49%
    05:00 +11°C° 0 mm 7 mps 735 mmHg 43%
    06:00 +11°C° 0 mm 8 mps 735 mmHg 37%
    07:00 +12°C° 0 mm 9 mps 735 mmHg 31%
    08:00 +15°C° 0 mm 9 mps 735 mmHg 29%
    09:00 +16°C° 0 mm 8 mps 735 mmHg 26%
    10:00 +17°C° 0 mm 8 mps 735 mmHg 23%
    11:00 +18°C° 0 mm 8 mps 735 mmHg 22%
    12:00 +20°C° 0 mm 7 mps 734 mmHg 21%
    13:00 +20°C° 0 mm 7 mps 734 mmHg 20%
    14:00 +21°C° 0 mm 6 mps 734 mmHg 19%
    15:00 +21°C° 0 mm 6 mps 733 mmHg 19%
    16:00 +21°C° 0 mm 5 mps 733 mmHg 18%
    17:00 +20°C° 0 mm 4 mps 733 mmHg 21%
    18:00 +19°C° 0 mm 4 mps 734 mmHg 24%
    19:00 +18°C° 0 mm 3 mps 734 mmHg 26%
    20:00 +17°C° 0 mm 3 mps 734 mmHg 29%
    21:00 +16°C° 0 mm 3 mps 735 mmHg 32%
    22:00 +16°C° 0 mm 3 mps 735 mmHg 34%
    23:00 +14°C° 0 mm 3 mps 735 mmHg 37%

    22 October, Monday

    Time Temperature Precipitation Wind Pressure Humidity
    00:00 +13°C° 0 mm 3 mps 735 mmHg 39%
    01:00 +13°C° 0 mm 3 mps 735 mmHg 42%
    02:00 +12°C° 0 mm 3 mps 735 mmHg 43%
    03:00 +12°C° 0 mm 3 mps 735 mmHg 44%
    04:00 +12°C° 0 mm 4 mps 735 mmHg 45%
    05:00 +12°C° 0 mm 4 mps 736 mmHg 41%
    06:00 +13°C° 0 mm 5 mps 736 mmHg 37%
    07:00 +14°C° 0 mm 6 mps 737 mmHg 34%
    08:00 +15°C° 0 mm 6 mps 737 mmHg 32%
    09:00 +16°C° 0 mm 6 mps 737 mmHg 30%
    10:00 +17°C° 0 mm 6 mps 737 mmHg 28%
    11:00 +19°C° 0 mm 5 mps 737 mmHg 27%
    12:00 +20°C° 0 mm 5 mps 736 mmHg 26%
    13:00 +20°C° 0 mm 5 mps 736 mmHg 25%
    14:00 +21°C° 0 mm 5 mps 736 mmHg 25%
    15:00 +21°C° 0 mm 5 mps 736 mmHg 25%
    16:00 +21°C° 0 mm 5 mps 736 mmHg 25%
    17:00 +20°C° 0 mm 6 mps 736 mmHg 28%
    18:00 +19°C° 0 mm 6 mps 737 mmHg 30%
    19:00 +17°C° 0 mm 7 mps 737 mmHg 33%
    20:00 +16°C° 0 mm 7 mps 738 mmHg 35%
    21:00 +15°C° 0 mm 8 mps 738 mmHg 36%
    22:00 +13°C° 0 mm 9 mps 739 mmHg 38%
    23:00 +13°C° 0 mm 8 mps 739 mmHg 40%

    23 October, Tuesday

    Time Temperature Precipitation Wind Pressure Humidity
    00:00 +12°C° 0 mm 8 mps 739 mmHg 42%
    01:00 +12°C° 0 mm 8 mps 739 mmHg 43%
    02:00 +11°C° 0 mm 8 mps 739 mmHg 46%
    03:00 +11°C° 0 mm 8 mps 739 mmHg 49%
    04:00 +11°C° 0 mm 8 mps 739 mmHg 52%
    05:00 +11°C° 0.3 mm 9 mps 739 mmHg 57%
    06:00 +10°C° 0.3 mm 9 mps 740 mmHg 62%
    07:00 +10°C° 0.3 mm 9 mps 740 mmHg 67%
    08:00 +10°C° 0.6 mm 9 mps 740 mmHg 65%
    09:00 +11°C° 0.6 mm 9 mps 739 mmHg 63%
    10:00 +11°C° 0.6 mm 9 mps 739 mmHg 61%
    11:00 +12°C° 0.3 mm 9 mps 739 mmHg 56%
    12:00 +13°C° 0.3 mm 9 mps 738 mmHg 52%
    13:00 +14°C° 0.3 mm 10 mps 737 mmHg 48%
    14:00 +14°C° 0 mm 10 mps 737 mmHg 46%
    15:00 +16°C° 0 mm 10 mps 736 mmHg 44%
    16:00 +16°C° 0 mm 10 mps 736 mmHg 43%
    17:00 +15°C° 0 mm 9 mps 736 mmHg 46%
    18:00 +13°C° 0 mm 8 mps 736 mmHg 50%
    19:00 +12°C° 0 mm 8 mps 736 mmHg 54%
    20:00 +12°C° 0.1 mm 7 mps 736 mmHg 56%
    21:00 +12°C° 0.1 mm 7 mps 736 mmHg 58%
    22:00 +11°C° 0.1 mm 7 mps 736 mmHg 60%
    23:00 +11°C° 0 mm 7 mps 735 mmHg 61%

    24 October, Wednesday

    Time Temperature Precipitation Wind Pressure Humidity
    00:00 +11°C° 0 mm 6 mps 735 mmHg 63%
    01:00 +11°C° 0 mm 6 mps 734 mmHg 64%
    02:00 +11°C° 0 mm 6 mps 734 mmHg 65%
    03:00 +12°C° 0 mm 5 mps 734 mmHg 66%
    04:00 +12°C° 0 mm 5 mps 734 mmHg 67%
    05:00 +13°C° 0.1 mm 5 mps 734 mmHg 66%
    06:00 +13°C° 0.1 mm 5 mps 734 mmHg 65%
    07:00 +14°C° 0.1 mm 6 mps 734 mmHg 64%
    08:00 +15°C° 0.1 mm 5 mps 734 mmHg 60%
    09:00 +17°C° 0.1 mm 5 mps 733 mmHg 56%
    10:00 +19°C° 0.1 mm 5 mps 733 mmHg 52%
    11:00 +20°C° 0 mm 5 mps 733 mmHg 49%
    12:00 +22°C° 0 mm 4 mps 732 mmHg 47%
    13:00 +23°C° 0 mm 4 mps 732 mmHg 44%
    14:00 +22°C° 0.6 mm 4 mps 732 mmHg 48%
    15:00 +21°C° 0.6 mm 5 mps 731 mmHg 52%
    16:00 +21°C° 0.6 mm 5 mps 731 mmHg 56%
    17:00 +20°C° 1 mm 6 mps 731 mmHg 63%
    18:00 +19°C° 1 mm 6 mps 731 mmHg 69%
    19:00 +17°C° 1 mm 7 mps 732 mmHg 76%
    20:00 +16°C° 0.5 mm 7 mps 732 mmHg 78%
    21:00 +16°C° 0.5 mm 7 mps 732 mmHg 80%
    22:00 +16°C° 0.5 mm 7 mps 732 mmHg 82%
    23:00 +16°C° 2 mm 6 mps 731 mmHg 83%
    Show more